◎2006 NMの軌道と予報位置です    [From JSGA Web News No. 91]



JSGA Web News No. 91                                              2006 Nov. 23



アモール型特異小惑星 2006 NMの接近

  サイデング・スプリングのスカイ・サーベイで2006年7月3日に撮影された捜索

フレーム上の次の位置に発見された16等級の小惑星 2006 NMは,明るいせいか,こ

れまでに981個の観測が報告された.我が国でも,雄踏の和久田俊一氏が165個,秦

野の浅見敦夫氏が8個,美星スペースガードセンターでも,下のとおり,21個の追

跡観測が報告された(ただし,2006年8月15日の観測は,精度が悪い).



   2006 UT             α     (2000)     δ             Mag.

   July 3.50207    14h 50m 41s.20   -37゚ 40' 25".0      16.0



     K06N00M  C2006 08 15.51423 16 16 44.55 -01 24 12.8          17.6 Vmr7089300

     K06N00M  C2006 08 15.51516 16 16 44.74 -01 24 09.1          17.7 Vmr7089300

     K06N00M  C2006 08 15.51794 16 16 45.39 -01 23 58.5          17.6 Vmr7089300

     K06N00M  C2006 08 15.51886 16 16 45.54 -01 23 55.2          17.5 Vmr7089300

     K06N00M  C2006 08 15.52164 16 16 46.14 -01 23 43.3          17.6 Vmr7089300

     K06N00M  C2006 08 15.52258 16 16 46.31 -01 23 40.2          17.8 Vmr7089300

     K06N00M  C2006 08 15.52535 16 16 46.96 -01 23 28.6          17.4 Vmr7089300

     K06N00M  C2006 08 15.52626 16 16 47.18 -01 23 25.2          17.6 Vmr7089300

     K06N00M  C2006 08 15.55960 16 16 54.35 -01 21 09.7          17.8 Vmr7089300

     K06N00M  C2006 08 15.56067 16 16 54.57 -01 21 06.2          17.6 Vmr7089300

     K06N00M  C2006 08 15.56701 16 16 56.01 -01 20 41.5          17.6 Vmr7089300

     K06N00M  C2006 08 15.57073 16 16 56.76 -01 20 26.3          17.6 Vmr7089300

     K06N00M  C2006 09 20.51596 19 13 07.43 +32 32 03.8          16.3 V s2785300

     K06N00M  C2006 09 20.52082 19 13 09.12 +32 32 12.1          16.4 V s2785300

     K06N00M  C2006 09 20.52570 19 13 10.65 +32 32 20.2          16.1 V s2785300

     K06N00M  C2006 09 20.53055 19 13 12.26 +32 32 29.5          16.3 V s2785300

     K06N00M  C2006 09 20.53543 19 13 13.79 +32 32 37.3          16.0 V s2785300

     K06N00M  C2006 10 29.44372 22 25 31.14 +34 55 27.0          16.5 V s6507300

     K06N00M  C2006 10 29.44613 22 25 31.70 +34 55 25.2          16.6 V s6507300

     K06N00M  C2006 10 29.45105 22 25 32.78 +34 55 22.1          16.4 V s6507300

     K06N00M  C2006 10 29.45351 22 25 33.31 +34 55 20.1          16.6 V EV017300



  次の軌道は,2006年7月3日から11月20日までに行なわれた961個の観測から決定さ

れたもの.平均残差は0".35.小惑星の直径は,1.79-Kmと推測される.この直径は,

最近発見されるNEOの中では,めずらしく大きい.

               。

       Mo=   5.7119                Epoch = 2006 Sept. 22.0 TT

       ω =  29.9622                   e =   0.615059          H = 16.4

       Ω = 292.6786    (2000.0)       a =   2.784027 AU       G =  0.15

       i =  14.2005                   n゚=   0.2121748

       q =   1.071687 AU              P =   4.65 年



  発見後からの予報位置を下に示す.小惑星は,2006年8月24日に地球に0.2402 AU

まで接近した.今後,40年間も大きな接近はないが,2039年2月に火星に0.18 AU,

2048年7月に地球に0.12 AUまで接近する.



2006/2007    α  (2000) δ      △      r     日々運動   Elong.  Phase   V  

  0h TT     h  m       。  ,        AU      AU    ,  PA 。     。      。      等

July  4   14 50.78  -37 23.3    0.360   1.266  36.6/  8   126.9   39.9   16.3

      9   14 52.85  -34 22.1    0.341   1.235  41.3/ 16   122.7   43.8   16.2

     14   14 57.16  -31 03.0    0.323   1.205  46.7/ 22   118.6   47.8   16.2

     19   15 03.66  -27 25.4    0.307   1.178  52.9/ 27   114.7   51.6   16.1

     24   15 12.31  -23 28.5    0.292   1.153  59.6/ 31   111.0   55.3   16.1

     29   15 23.10  -19 11.2    0.279   1.132  66.9/ 34   107.6   58.8   16.0

Aug.  3   15 35.96  -14 32.3    0.267   1.113  74.3/ 36   104.7   61.9   16.0

      8   15 50.82  -09 31.7    0.256   1.097  81.3/ 38   102.2   64.6   15.9

     13   16 07.61  -04 11.2    0.248   1.085  87.3/ 40   100.2   66.8   15.9

     18   16 26.27  +01 24.1    0.243   1.077  91.9/ 42    98.9   68.3   15.9

     23   16 46.80  +07 05.8    0.240   1.072  94.3/ 44    98.2   69.0   15.9

     28   17 09.15  +12 42.6    0.241   1.072  94.5/ 47    98.3   68.8   15.9

Sept. 2   17 33.22  +18 02.5    0.245   1.075  92.5/ 50    99.1   67.9   15.9

      7   17 58.81  +22 53.6    0.252   1.083  88.7/ 54   100.6   66.2   15.9

     12   18 25.63  +27 06.3    0.262   1.094  83.8/ 59   102.6   63.9   16.0

     17   18 53.34  +30 34.1    0.276   1.109  78.6/ 64   104.9   61.2   16.0

     22   19 21.52  +33 14.9    0.292   1.127  73.5/ 70   107.6   58.1   16.1

     27   19 49.69  +35 10.0    0.311   1.148  68.8/ 76   110.4   54.9   16.2

Oct.  2   20 17.33  +36 23.2    0.332   1.172  64.6/ 81   113.2   51.7   16.3

      7   20 44.00  +37 00.0    0.357   1.199  60.6/ 87   115.9   48.6   16.4

     12   21 09.33  +37 06.3    0.384   1.228  57.2/ 92   118.4   45.7   16.5

     17   21 33.13  +36 48.1    0.414   1.259  54.0/ 96   120.6   43.0   16.6

     22   21 55.33  +36 11.6    0.447   1.291  51.2/100   122.5   40.5   16.8

     27   22 15.97  +35 22.5    0.483   1.326  48.5/102   124.0   38.5   17.0

Nov.  1   22 35.13  +34 25.8    0.523   1.361  45.9/104   124.9   36.7   17.2

      6   22 52.92  +33 25.3    0.566   1.398  43.4/105   125.4   35.3   17.3

     11   23 09.46  +32 24.1    0.613   1.435  41.2/106   125.5   34.2   17.5

     16   23 24.92  +31 24.3    0.663   1.473  39.1/106   125.0   33.4   17.7

     21   23 39.45  +30 27.7    0.718   1.512  37.2/105   124.1   32.7   18.0

     26   23 53.19  +29 35.7    0.776   1.552  35.4/105   122.9   32.3   18.2

Dec.  1   00 06.24  +28 48.9    0.838   1.591  33.9/103   121.3   32.0   18.4

      6   00 18.70  +28 07.5    0.903   1.631  32.5/102   119.4   31.8   18.6

     11   00 30.65  +27 31.7    0.972   1.671  31.3/101   117.3   31.6   18.8

     16   00 42.18  +27 01.2    1.044   1.711  30.3/ 99   115.0   31.4   19.0

     21   00 53.34  +26 35.8    1.120   1.752  29.5/ 97   112.6   31.2   19.2

     26   01 04.21  +26 15.3    1.198   1.792  28.7/ 96   110.1   31.0   19.4

     31   01 14.81  +25 59.4    1.279   1.832  28.1/ 94   107.4   30.8   19.6

Jan.  5   01 25.19  +25 47.4    1.363   1.872  27.6/ 93   104.7   30.5   19.7

     10   01 35.38  +25 39.0    1.449   1.912  27.1/ 92   101.9   30.2   19.9

     15   01 45.40  +25 33.7    1.537   1.951  26.8/ 91    99.1   29.9   20.1

     20   01 55.28  +25 31.3    1.627   1.991  26.5/ 89    96.2   29.4   20.2

     25   02 05.05  +25 31.2    1.719   2.030  26.2/ 89    93.3   29.0   20.4

     30   02 14.72  +25 33.3    1.812   2.069  25.9/ 88    90.4   28.4   20.5

Feb.  4   02 24.30  +25 36.9    1.906   2.107  25.7/ 87    87.5   27.9   20.7

      9   02 33.79  +25 42.0    2.002   2.146  25.5/ 87    84.6   27.2   20.8

     14   02 43.22  +25 48.0    2.097   2.184  25.3/ 86    81.6   26.6   20.9

     19   02 52.58  +25 55.0    2.193   2.221  25.2/ 86    78.7   25.9   21.0

     24   03 01.90  +26 02.5    2.290   2.259  25.0/ 86    75.7   25.1   21.1

Mar.  1   03 11.16  +26 10.3    2.386   2.296  24.8/ 86    72.7   24.3   21.2

      6   03 20.36  +26 18.2    2.482   2.333  24.7/ 86    69.8   23.5   21.3

     11   03 29.52  +26 26.1    2.577   2.369  24.5/ 86    66.8   22.7   21.4

     16   03 38.64  +26 33.8    2.671   2.405  24.4/ 86    63.9   21.8   21.5

     21   03 47.71  +26 41.1    2.764   2.440  24.2/ 86    60.9   20.9   21.6

     26   03 56.74  +26 47.9    2.856   2.476  24.1/ 87    58.0   20.0   21.6

     31   04 05.72  +26 54.1    2.946   2.511  23.9/ 87    55.0   19.0   21.7

Apr.  5   04 14.65  +26 59.6    3.034   2.545  23.7/ 87    52.1   18.1   21.8

     10   04 23.52  +27 04.2    3.121   2.579  23.6/ 88    49.1   17.1   21.8

     15   04 32.35  +27 07.9    3.205   2.613  23.4/ 88    46.2   16.1   21.9

     20   04 41.12  +27 10.7    3.287   2.647  23.2/ 89    43.2   15.1   21.9

     25   04 49.83  +27 12.5    3.367   2.680  23.1/ 89    40.3   14.1   22.0

     30   04 58.47  +27 13.1    3.443   2.712  22.9/ 90    37.4   13.0   22.0

May   5   05 07.05  +27 12.7    3.517   2.745  22.7/ 90    34.4   12.0   22.0





軌道と残差:

 

2006 NM

Epoch 2006 Sept. 22.0 TT = JDT 2454000.5                Nakano

M   5.71190              (2000.0)            P               Q

n   0.21217483     Peri.   29.96218     +0.78076601     +0.58238375

a   2.7840272      Node   292.67862     -0.61087041     +0.63535332

e   0.6150588      Incl.   14.20049     -0.13130796     +0.50710484

P   4.65           H   16.4           G   0.15           U   3

Residuals in seconds of arc 

060703 E12  0.1+  0.1+    060906 H45  0.1-  0.1-    061008 A48  0.6+  0.1+  

060703 E12  0.1+  0.0     060906 H45  1.0-  0.1-    061008 A48  0.6+  0.2+  

060703 E12  0.2+  0.3+    060906 H45  0.5-  0.0     061008 A48  0.6+  0.1+  

060703 E12  0.1+  0.1+    060906 H45  0.0   0.1-    061008 A48  0.5+  0.0   

060703 E12  0.2+  0.3+    060906 H45  0.2-  0.0     061009 H67  0.1+  0.1-  

060703 E12  0.3-  0.0     060906 H45  0.1-  0.1-    061009 H67  0.5-  0.1-  

060703 E12  0.3+  0.0     060906 639  0.2+  0.2+    061009 H67  0.1+  0.0   

060703 E12  0.2-  0.1-    060906 639  0.1+  0.2+    061009 379  0.2-  0.2+  

060703 E12  0.1-  0.6+    060906 639  0.1+  0.2+    061009 379  0.0   0.1-  

060703 E12  0.2+  0.1-    060906 639  0.0   0.0     061009 379  0.0   0.1+  

060703 I77  0.3-  0.6+    060906 639  0.1-  0.1+    061009 379  0.0   0.0   

060703 I77  0.2-  0.1-    060907 J94  0.5-  0.1-    061009 379  0.1+  0.1-  

060703 I77  0.2+  0.2-    060907 J65  1.2-  0.7+    061009 379  0.2+  0.1+  

060704 E12  0.1+  0.1+    060907 J65  0.6+  0.8+    061009 379  0.1+  0.2+  

060704 E12  0.3-  0.2+    060907 J65  0.2-  0.5+    061009 379  0.2-  0.2-  

060704 E12  0.3-  0.2+    060907 J65  0.4+  0.5+    061009 379  0.1-  0.1+  

060704 E12  0.1-  0.1-    060907 J94  0.1-  0.4-    061009 379  0.2-  0.1-  

060704 423  0.3-  0.1+    060907 J94  0.1+  0.2-    061009 379  0.0   0.1+  

060704 423  0.0   0.0     060907 J65  0.5-  0.8+    061009 379  0.1+  0.0   

060704 423  0.1-  0.1+    060907 J65  0.6-  0.7+    061009 379  0.2-  0.2-  

060704 423  0.1-  0.3-    060907 J65  0.2+  0.8-    061009 379  0.0   0.1-  

